Home   Weather   Medford   Past weeks

Flag for USA Past Weather in Medford, Oregon, USA — Yesterday and Last 2 Weeks

Now
41 °F

Clear.


Feels Like: 41 °F
Forecast: 36 / 45 °F
Wind: No wind

Location: Rogue Valley International Airport

Current Time: Jan 21, 2017 at 10:04:55 pm

Latest Report: Jan 21, 2017 at 8:53 pm


Visibility: 10 mi

Pressure: 29.56 "Hg

Humidity: 93%

Dew Point: 39 °F

Location of MedfordLocation

Past Weather in Medford — Graph

°F

Medford Temperature Yesterday

Maximum temperature yesterday: 52 °F (at 12:53 pm)
Minimum temperature yesterday: 40 °F (at 11:53 pm)
Average temperature yesterday: 46 °F

High & Low Weather Summary for the Past Weeks

 TemperatureHumidityPressure
High54 °F (Jan 18, 3:53 am)100% (Jan 7, 6:53 pm)30.40 "Hg (Jan 7, 6:53 pm)
Low20 °F (Jan 6, 9:53 pm)52% (Jan 18, 1:53 am)29.07 "Hg (Jan 20, 1:53 pm)
Average37 °F90%29.86 "Hg
* Reported Jan 6 8:53 pm — Jan 21 8:53 pm, Medford, Weather by CustomWeather, © 2017

Note: Actual official high and low records may vary slightly from our data, if they occured in-between our weather recording intervals... More about our weather records

Advertising

Medford Weather History for the Previous 24 Hours

Scroll right to see more
 ConditionsComfort  
Time TempWeatherWind HumidityBarometerVisibility
8:53 pm
Sat, Jan 21
41 °FClear.No wind93%29.56 "Hg10 mi
7:53 pm41 °FClear.No wind93%29.59 "Hg10 mi
6:53 pm43 °FClear.7 mph86%29.59 "Hg10 mi
5:53 pm44 °FClear.5 mph82%29.62 "Hg10 mi
4:53 pm47 °FPassing clouds.7 mph74%29.62 "Hg10 mi
3:53 pm50 °FScattered clouds.7 mph68%29.62 "Hg10 mi
2:53 pm50 °FPassing clouds.7 mph59%29.61 "Hg10 mi
1:53 pm50 °FPartly sunny.6 mph61%29.60 "Hg10 mi
12:53 pm49 °FBroken clouds.9 mph74%29.59 "Hg10 mi
11:53 am47 °FBroken clouds.10 mph74%29.58 "Hg10 mi
10:53 am43 °FRain. Fog.6 mph86%29.55 "Hg5 mi
9:53 am43 °FRain. Overcast.10 mph82%29.50 "Hg6 mi
9:07 am41 °FRain. Fog.9 mph93%29.47 "Hg4 mi
8:53 am39 °FLight rain. Fog.6 mph96%29.46 "Hg4 mi
7:53 am38 °FLight rain. Fog.No wind97%29.42 "Hg4 mi
7:19 am37 °FLight rain. Overcast.3 mph100%29.40 "Hg8 mi
6:53 am38 °FLight rain. Fog.5 mph97%29.39 "Hg6 mi
5:53 am37 °FLight rain. Fog.5 mph96%29.35 "Hg6 mi
5:06 am36 °FFog.No wind100%29.34 "Hg4 mi
3:53 am37 °FFog.No wind100%29.31 "Hg6 mi
2:53 am37 °FFog.No wind100%29.29 "Hg5 mi
1:53 am37 °FFog.No wind100%29.28 "Hg6 mi
12:53 am38 °FClear.No wind97%29.25 "Hg10 mi
11:53 pm
Fri, Jan 20
40 °FMostly cloudy.5 mph97%29.24 "Hg10 mi
10:53 pm41 °FOvercast.No wind93%29.23 "Hg10 mi
Weather by CustomWeather, © 2017

See weather overviewHow to use our weather pages